Walnut Ridge, AR

7:20 PM CDT on April 28, 2017 (GMT -0500)
Walnut Ridge Regional

Weather History for KARG - February, 2013

Change the Weather History Date:

Tuesday, February 26, 2013

  Actual Average Record
Temperature  
Mean Temperature 42 °F -  
Max Temperature 48 °F 49 °F 71 °F (2009)
Min Temperature 37 °F 34 °F 21 °F (2003)
Degree Days  
Heating Degree Days 22    
Moisture  
Dew Point 38 °F    
Average Humidity 84    
Maximum Humidity 100    
Minimum Humidity 70    
Precipitation  
Precipitation 0.13 in - - ()
Sea Level Pressure  
Sea Level Pressure 29.49 in    
Wind  
Wind Speed 16 mph (WSW)    
Max Wind Speed 24 mph    
Max Gust Speed 33 mph    
Visibility 10 miles    
Events      
Averages and records for this station are not official NWS values.
T = Trace of Precipitation, MM = Missing Value Source: NWS Daily Summary

Daily Weather History Graph

Daily Weather History Graph

Search for Another Location

Airport or City:

Trip Planner

Search our weather history database for the weather conditions in past years. The results will help you decide how hot, cold, wet, or windy it might be!

Date:

Astronomy

Feb. 26, 2013 Rise Set
Actual Time 6:37 AM CST 5:56 PM CST
Civil Twilight 6:11 AM CST 6:21 PM CST
Nautical Twilight 5:41 AM CST 6:51 PM CST
Astronomical Twilight 5:12 AM CST 7:21 PM CST
Moon 7:08 PM CST (2/26) 6:43 AM CST (2/26)
Length of Visible Light 12h 10m
Length of Day
11h 18m
Full, 99% of the Moon is Illuminated
Feb 26
Full
Mar 4
Last Quarter
Mar 11
New
Mar 19
First Quarter
Mar 27
Full

Hourly Weather History & Observations

Time (CST) Temp. Windchill Dew Point Humidity Pressure Visibility Wind Dir Wind Speed Gust Speed Precip Events Conditions
12:15 AM 42.8 °F 35.8 °F 42.8 °F 100% 29.32 in 10.0 mi NE 13.8 mph 33.4 mph N/A   Overcast
12:35 AM 42.8 °F 33.3 °F 42.8 °F 100% 29.31 in 10.0 mi NE 24.2 mph 32.2 mph N/A   Overcast
12:55 AM 44.6 °F 36.6 °F 42.8 °F 93% 29.30 in 3.0 mi NE 19.6 mph - 0.05 in   Overcast
1:15 AM 44.6 °F 38.4 °F 42.8 °F 93% 29.30 in 5.0 mi NE 12.7 mph - 0.02 in   Overcast
1:35 AM 46.4 °F 40.1 °F 44.6 °F 93% 29.31 in 10.0 mi ENE 15.0 mph - 0.02 in   Overcast
1:55 AM 46.4 °F 41.1 °F 44.6 °F 93% 29.29 in 10.0 mi ENE 11.5 mph - 0.02 in   Overcast
2:15 AM 46.4 °F 41.1 °F 44.6 °F 93% 29.28 in 10.0 mi ENE 11.5 mph - N/A   Overcast
2:35 AM 46.4 °F 42.4 °F 46.4 °F 100% 29.27 in 10.0 mi East 8.1 mph - N/A   Overcast
2:55 AM 48.2 °F - 46.4 °F 93% 29.27 in 10.0 mi South 18.4 mph - N/A   Overcast
3:15 AM 46.4 °F 39.0 °F 44.6 °F 93% 29.28 in 10.0 mi SSW 19.6 mph - N/A   Overcast
3:35 AM 44.6 °F 35.9 °F 42.8 °F 93% 29.29 in 5.0 mi SW 23.0 mph 28.8 mph N/A   Overcast
3:55 AM 44.6 °F 36.6 °F 42.8 °F 93% 29.30 in 9.0 mi SW 19.6 mph 23.0 mph N/A   Overcast
4:15 AM 44.6 °F 37.4 °F 42.8 °F 93% 29.31 in 10.0 mi SW 16.1 mph - N/A   Overcast
4:35 AM 44.6 °F 38.1 °F 42.8 °F 93% 29.31 in 10.0 mi SSW 13.8 mph - N/A   Overcast
4:55 AM 44.6 °F 37.8 °F 42.8 °F 93% 29.32 in 10.0 mi SW 15.0 mph - N/A   Overcast
5:15 AM 44.6 °F 38.1 °F 42.8 °F 93% 29.33 in 10.0 mi SW 13.8 mph - N/A   Overcast
5:35 AM 44.6 °F 39.2 °F 42.8 °F 93% 29.33 in 10.0 mi SW 10.4 mph - N/A   Overcast
5:55 AM 44.6 °F 38.4 °F 42.8 °F 93% 29.34 in 10.0 mi SW 12.7 mph - N/A   Overcast
6:15 AM 44.6 °F 40.2 °F 42.8 °F 93% 29.34 in 10.0 mi SW 8.1 mph - N/A   Overcast
6:35 AM 44.6 °F 39.2 °F 42.8 °F 93% 29.34 in 10.0 mi South 10.4 mph - N/A   Overcast
6:55 AM 44.6 °F 38.4 °F 42.8 °F 93% 29.34 in 10.0 mi SSW 12.7 mph - N/A   Overcast
7:15 AM 44.6 °F 37.8 °F 41.0 °F 87% 29.35 in 10.0 mi SSW 15.0 mph - N/A   Overcast
7:35 AM 44.6 °F 38.1 °F 41.0 °F 87% 29.36 in 10.0 mi SSW 13.8 mph - N/A   Overcast
7:55 AM 44.6 °F 38.1 °F 41.0 °F 87% 29.37 in 10.0 mi SSW 13.8 mph - N/A   Overcast
8:15 AM 44.6 °F 38.1 °F 42.8 °F 93% 29.38 in 10.0 mi SSW 13.8 mph - N/A   Mostly Cloudy
8:35 AM 44.6 °F 36.6 °F 41.0 °F 87% 29.38 in 10.0 mi SSW 19.6 mph - N/A   Overcast
8:55 AM 44.6 °F 36.9 °F 41.0 °F 87% 29.39 in 10.0 mi South 18.4 mph 26.5 mph N/A   Overcast
9:15 AM 44.6 °F 36.4 °F 41.0 °F 87% 29.39 in 9.0 mi South 20.7 mph 28.8 mph N/A   Overcast
9:35 AM 42.8 °F 34.0 °F 41.0 °F 93% 29.40 in 5.0 mi SSW 20.7 mph 27.6 mph N/A   Overcast
9:55 AM 42.8 °F 34.0 °F 41.0 °F 93% 29.40 in 9.0 mi SSW 20.7 mph 25.3 mph 0.01 in   Overcast
10:15 AM 42.8 °F 34.0 °F 39.2 °F 87% 29.41 in 9.0 mi SSW 20.7 mph 25.3 mph 0.01 in   Overcast
10:35 AM 42.8 °F 35.4 °F 39.2 °F 87% 29.42 in 7.0 mi WSW 15.0 mph 27.6 mph 0.04 in   Overcast
10:55 AM 41.0 °F 33.9 °F 39.2 °F 93% 29.43 in 9.0 mi WSW 12.7 mph 18.4 mph 0.05 in   Overcast
11:15 AM 41.0 °F 32.8 °F 37.4 °F 87% 29.45 in 10.0 mi West 16.1 mph 21.9 mph N/A   Overcast
11:35 AM 41.0 °F 32.2 °F 37.4 °F 87% 29.45 in 10.0 mi WSW 18.4 mph - N/A   Overcast
11:55 AM 41.0 °F 32.8 °F 37.4 °F 87% 29.46 in 10.0 mi WSW 16.1 mph 20.7 mph N/A   Scattered Clouds
12:15 PM 41.0 °F 32.2 °F 35.6 °F 81% 29.46 in 10.0 mi WSW 18.4 mph - N/A   Mostly Cloudy
12:35 PM 42.8 °F 34.8 °F 37.4 °F 81% 29.47 in 10.0 mi WSW 17.3 mph 21.9 mph N/A   Overcast
12:55 PM 41.0 °F 32.8 °F 35.6 °F 81% 29.47 in 10.0 mi WSW 16.1 mph 21.9 mph N/A   Overcast
1:15 PM 42.8 °F 34.8 °F 37.4 °F 81% 29.47 in 10.0 mi WSW 17.3 mph 21.9 mph N/A   Mostly Cloudy
1:35 PM 41.0 °F 33.9 °F 35.6 °F 81% 29.49 in 10.0 mi WSW 12.7 mph 26.5 mph N/A   Overcast
1:55 PM 42.8 °F 35.1 °F 35.6 °F 76% 29.49 in 10.0 mi WSW 16.1 mph - N/A   Overcast
2:15 PM 42.8 °F 34.8 °F 37.4 °F 81% 29.50 in 10.0 mi WSW 17.3 mph 23.0 mph N/A   Overcast
2:35 PM 42.8 °F 34.0 °F 35.6 °F 76% 29.52 in 10.0 mi WSW 20.7 mph 28.8 mph N/A   Mostly Cloudy
2:55 PM 42.8 °F 34.3 °F 35.6 °F 76% 29.53 in 10.0 mi West 19.6 mph 25.3 mph N/A   Overcast
3:15 PM 41.0 °F 33.9 °F 37.4 °F 87% 29.53 in 10.0 mi West 12.7 mph 21.9 mph N/A   Mostly Cloudy
3:35 PM 42.8 °F 35.1 °F 35.6 °F 76% 29.54 in 9.0 mi West 16.1 mph 24.2 mph N/A   Overcast
3:55 PM 41.0 °F 33.5 °F 33.8 °F 76% 29.56 in 10.0 mi West 13.8 mph - N/A   Overcast
4:15 PM 41.0 °F 32.5 °F 33.8 °F 76% 29.57 in 10.0 mi West 17.3 mph 24.2 mph N/A   Overcast
4:35 PM 41.0 °F 32.2 °F 33.8 °F 76% 29.59 in 10.0 mi West 18.4 mph 24.2 mph N/A   Overcast
4:55 PM 41.0 °F 31.4 °F 33.8 °F 76% 29.59 in 10.0 mi West 21.9 mph 27.6 mph N/A   Overcast
5:15 PM 41.0 °F 31.9 °F 32.0 °F 70% 29.60 in 10.0 mi West 19.6 mph 26.5 mph N/A   Overcast
5:35 PM 39.2 °F 30.5 °F 32.0 °F 75% 29.62 in 10.0 mi West 16.1 mph - N/A   Overcast
5:55 PM 39.2 °F 30.5 °F 33.8 °F 81% 29.63 in 10.0 mi West 16.1 mph 23.0 mph N/A   Overcast
6:15 PM 39.2 °F 31.2 °F 33.8 °F 81% 29.65 in 10.0 mi West 13.8 mph - N/A   Overcast
6:35 PM 39.2 °F 30.8 °F 33.8 °F 81% 29.66 in 10.0 mi West 15.0 mph 21.9 mph N/A   Overcast
6:55 PM 39.2 °F 29.6 °F 32.0 °F 75% 29.67 in 10.0 mi West 19.6 mph 26.5 mph N/A   Overcast
7:15 PM 39.2 °F 30.5 °F 32.0 °F 75% 29.69 in 10.0 mi West 16.1 mph 23.0 mph N/A   Overcast
7:35 PM 39.2 °F 30.2 °F 32.0 °F 75% 29.70 in 10.0 mi West 17.3 mph 21.9 mph N/A   Overcast
7:55 PM 39.2 °F 29.3 °F 32.0 °F 75% 29.71 in 10.0 mi West 20.7 mph 25.3 mph N/A   Overcast
8:15 PM 39.2 °F 30.5 °F 32.0 °F 75% 29.73 in 10.0 mi WNW 16.1 mph - N/A   Overcast
8:35 PM 39.2 °F 31.6 °F 32.0 °F 75% 29.74 in 10.0 mi WNW 12.7 mph 19.6 mph N/A   Overcast
8:55 PM 39.2 °F 30.8 °F 32.0 °F 75% 29.75 in 10.0 mi West 15.0 mph - N/A   Overcast
9:15 PM 39.2 °F 30.5 °F 32.0 °F 75% 29.75 in 10.0 mi WNW 16.1 mph 20.7 mph N/A   Overcast
9:35 PM 39.2 °F 30.5 °F 32.0 °F 75% 29.76 in 10.0 mi West 16.1 mph 21.9 mph N/A   Overcast
9:55 PM 39.2 °F 31.2 °F 32.0 °F 75% 29.76 in 10.0 mi West 13.8 mph - N/A   Overcast
10:15 PM 39.2 °F 31.6 °F 32.0 °F 75% 29.77 in 10.0 mi West 12.7 mph 19.6 mph N/A   Overcast
10:55 PM 37.4 °F 29.3 °F 30.2 °F 75% 29.78 in 10.0 mi West 12.7 mph - N/A   Overcast
11:15 PM 37.4 °F 28.9 °F 30.2 °F 75% 29.79 in 10.0 mi West 13.8 mph 18.4 mph N/A   Overcast
11:35 PM 37.4 °F 29.3 °F 30.2 °F 75% 29.80 in 10.0 mi West 12.7 mph - N/A   Overcast
11:55 PM 37.4 °F 29.3 °F 30.2 °F 75% 29.80 in 10.0 mi West 12.7 mph 19.6 mph N/A   Overcast